Theta_e
272 272 274 275 275 271 273 274 278 279 279 278 279 279 279 279 280 280 280 281 280 280 280 280 280 281 279 280 281 282 282 281 278 279 280 283 283 283 285 287 289 288 288
269 270 272 273 271 268 269 271 276 278 279 279 279 279 279 280 280 280 280 280 276 274 273 278 278 280 278 279 278 279 279 280 279 277 279 280 280 283 286 286 286 286 286
265 268 270 271 271 270 269 269 272 278 279 279 280 279 280 280 280 273 275 279 278 276 267 267 270 268 275 274 274 278 277 280 280 279 279 281 283 285 285 282 283 285 286
263 266 268 269 270 270 270 270 273 277 278 279 279 280 280 279 272 270 269 267 267 269 269 268 269 270 272 273 277 275 279 279 280 280 280 279 279 282 283 282 280 283 283
261 263 266 266 265 265 266 266 268 273 274 279 279 278 271 268 271 268 269 269 268 269 268 268 269 272 277 278 278 277 276 277 278 277 276 278 278 278 278 280 279 280 281
259 263 261 261 264 266 266 266 267 268 270 275 270 269 269 273 278 281 280 271 271 271 271 271 273 273 276 281 282 283 282 277 277 276 276 277 277 278 279 278 277 274 275
265 267 269 268 269 269 270 270 269 268 269 269 269 269 270 270 278 281 282 275 273 272 273 275 276 276 275 276 279 282 283 282 282 278 276 276 275 276 277 276 276 275 272
269 271 272 271 272 272 272 271 270 270 270 271 272 272 273 274 280 281 282 279 278 276 275 275 274 274 274 275 276 277 277 277 277 277 276 276 276 277 274 274 274 274 271
271 270 271 272 272 272 272 271 271 271 272 273 274 274 274 275 280 281 281 278 278 277 278 277 276 275 278 281 277 276 276 276 279 282 282 282 283 283 280 272 268 264 266
271 272 272 272 271 271 272 273 274 273 275 275 276 275 275 275 279 281 281 278 276 276 276 276 279 278 280 282 277 275 274 275 274 273 273 276 277 275 279 273 268 264 263
271 270 270 271 270 270 271 272 272 272 274 273 273 274 273 274 275 280 282 278 277 276 276 275 275 280 282 283 284 276 276 276 275 271 268 269 269 270 270 271 270 267 263
269 268 268 268 269 271 269 270 269 269 270 270 268 270 272 273 275 278 280 282 281 277 276 276 275 280 282 283 282 283 283 282 267 265 264 269 269 268 268 270 270 269 269
265 264 265 268 269 270 268 269 269 268 268 269 270 270 271 272 272 278 280 281 282 280 278 279 282 282 283 283 284 283 279 269 268 266 271 270 268 269 265 265 266 265 267
263 265 267 267 268 268 270 270 270 269 269 270 270 270 270 271 271 272 274 274 276 276 278 277 279 281 280 278 271 276 271 271 271 272 271 269 268 267 268 267 265 265 263
264 266 266 267 267 268 269 269 271 272 273 273 272 272 271 271 272 278 278 275 275 276 275 268 269 271 272 272 272 271 271 268 269 269 268 270 270 268 268 267 267 265 266
263 264 265 266 267 267 267 267 272 274 276 277 278 278 277 278 280 280 281 281 282 283 281 272 272 274 272 272 273 272 269 269 269 269 270 271 271 271 271 269 268 266 267
258 261 262 264 264 263 263 263 262 266 272 273 275 276 276 277 278 278 279 279 279 278 273 273 272 273 274 273 273 272 270 271 272 269 269 269 270 270 269 268 269 267 267
254 258 259 260 259 258 258 258 257 256 258 261 266 272 273 274 275 275 275 271 263 267 266 266 266 267 268 268 269 269 268 269 269 270 270 268 268 268 267 268 269 267 266
256 257 257 255 254 254 254 254 253 253 253 254 255 262 262 270 270 270 269 256 256 256 258 261 263 263 264 265 264 266 266 266 267 266 266 267 267 266 265 266 267 267 265
252 256 254 251 251 251 252 251 252 252 252 252 253 253 255 254 253 250 250 250 251 252 253 253 254 253 255 256 257 259 260 261 261 261 262 263 264 265 264 263 263 263 261
250 250 252 248 248 248 248 248 249 247 250 250 252 251 266 253 254 249 250 250 249 251 252 251 253 252 251 251 252 253 254 256 257 256 255 255 254 255 253 255 253 251 251
249 248 247 248 248 248 248 247 247 247 248 249 253 250 264 249 250 250 251 252 253 251 252 251 252 253 253 253 252 250 251 252 251 251 251 252 253 253 252 251 249 248 248
249 248 248 248 246 248 249 248 247 248 249 250 252 253 252 252 252 252 253 254 253 253 252 249 250 252 252 251 252 254 255 255 255 253 252 250 250 251 249 250 248 246 247
248 249 251 252 248 249 249 251 251 251 252 252 252 253 254 255 254 254 254 254 253 253 252 251 251 252 253 252 251 251 252 253 248 253 252 251 251 248 247 246 247 246 246
249 250 250 251 251 251 250 251 252 252 253 254 255 255 255 255 255 255 255 254 254 254 253 253 253 253 252 252 253 252 252 257 255 253 252 250 252 250 247 247 246 244 245
252 252 252 251 250 251 251 252 253 254 254 255 256 256 256 256 256 256 256 255 255 255 254 254 253 253 252 253 252 254 254 257 254 254 251 252 252 249 248 248 247 245 246
Wind_Speed
4 3 4 4 4 3 3 4 4 3 4 4 4 4 3 4 4 3 4 5 5 5 4 5 5 4 4 5 6 6 7 5 10 10 6 10 14 12 13 11 11 10 10
4 4 5 4 3 3 4 4 3 5 4 4 4 4 4 4 4 5 5 4 4 5 4 4 5 5 6 8 5 8 6 6 7 14 10 9 11 12 11 11 8 7 8
3 5 5 5 3 5 5 5 5 5 4 4 5 5 4 5 4 4 5 7 7 6 4 4 6 3 7 5 5 6 5 6 6 8 11 8 9 9 10 5 6 8 5
3 4 5 5 5 5 5 5 5 4 4 5 5 5 4 4 3 5 4 5 6 6 6 5 6 6 6 5 6 5 5 6 7 8 9 9 6 8 7 8 10 7 8
3 5 7 5 4 4 5 5 5 3 4 5 5 3 3 3 5 6 6 6 6 6 5 6 6 8 13 11 6 5 4 5 5 6 6 9 8 8 8 6 8 9 5
2 5 4 4 3 6 5 5 3 4 5 4 5 5 6 6 14 16 11 6 6 6 6 6 6 7 11 14 13 14 10 4 6 3 5 7 9 7 6 7 6 4 5
3 3 4 4 5 5 5 4 5 6 5 6 7 6 8 8 17 17 16 5 6 6 7 7 6 5 6 6 11 13 11 11 11 5 6 6 6 3 7 10 8 5 4
2 3 3 3 4 5 4 5 5 4 6 6 7 8 8 9 16 16 16 7 7 8 8 8 7 8 7 7 6 6 6 6 6 4 5 7 7 7 4 3 6 7 5
4 3 4 5 6 5 5 5 5 5 5 7 7 8 9 10 16 16 14 6 8 9 8 8 8 8 12 14 6 7 7 6 7 10 11 11 13 14 8 2 3 3 4
7 7 6 6 6 7 7 7 5 5 8 6 8 7 9 11 14 17 14 5 8 7 7 8 15 13 16 16 8 6 7 8 4 4 4 6 7 6 7 3 2 1 2
8 8 7 6 7 7 7 6 6 6 7 6 7 7 7 8 10 18 19 8 8 7 7 7 6 16 17 17 17 6 9 5 8 4 3 3 3 4 3 3 3 3 2
7 8 7 6 6 5 6 6 5 5 6 6 5 7 6 7 12 16 19 20 18 9 10 7 6 15 16 16 13 14 17 13 2 1 2 4 4 3 3 3 4 4 4
7 6 5 6 6 6 5 6 4 3 4 5 4 5 6 5 5 15 17 19 19 13 7 11 18 18 18 15 17 16 9 1 2 1 5 4 3 3 2 3 2 3 4
6 7 6 5 7 5 4 4 4 4 4 4 4 5 6 5 5 5 5 6 10 10 12 8 10 13 9 9 4 6 2 3 4 5 4 3 1 1 2 2 1 1 1
6 6 6 5 5 6 5 5 5 5 6 5 4 5 5 5 4 10 9 6 6 9 6 1 1 2 3 3 3 4 3 3 4 3 4 5 4 2 3 2 2 1 2
6 5 5 5 5 5 5 7 10 11 12 12 12 9 3 9 13 14 14 13 14 17 7 3 4 5 5 5 5 5 3 4 3 3 4 5 5 4 4 3 2 2 2
4 5 4 4 4 5 5 5 7 8 11 11 12 11 14 14 14 14 14 15 13 10 3 4 2 2 2 1 2 3 2 2 2 2 2 3 3 3 3 3 3 3 2
4 5 3 4 3 3 3 3 2 2 5 6 9 11 15 17 15 15 16 9 4 5 3 2 2 2 2 2 2 2 2 2 2 3 3 3 3 3 2 3 3 3 3
3 3 3 3 2 2 2 2 2 2 3 4 4 7 7 14 12 11 11 3 2 3 3 3 2 2 2 2 2 2 2 2 2 2 2 3 3 2 3 3 3 4 3
3 5 2 2 2 3 2 2 3 3 4 3 4 4 6 4 4 3 2 2 2 3 3 3 3 3 3 3 3 2 3 2 3 2 3 2 2 1 1 2 2 2 1
3 3 3 2 2 2 3 3 3 3 4 4 5 4 15 1 5 4 4 4 4 5 5 4 4 4 3 3 3 2 2 3 2 2 2 1 0 1 1 2 2 2 3
3 3 2 3 2 3 4 3 3 4 5 5 7 5 15 1 4 5 6 6 6 6 5 5 5 5 5 5 4 4 4 4 3 3 3 2 2 3 2 2 2 2 2
3 3 3 3 3 4 4 4 4 5 5 6 6 7 5 5 5 6 7 7 6 6 5 5 5 6 5 5 5 5 5 6 6 4 4 3 3 3 3 3 3 2 2
3 4 5 5 3 4 5 6 5 7 7 7 6 7 7 7 7 8 8 7 6 7 5 5 6 9 7 6 5 5 6 5 3 5 7 5 4 3 3 2 4 3 3
4 5 5 5 5 6 5 6 7 7 7 7 8 7 7 7 8 8 8 7 7 7 8 7 6 8 10 10 9 9 8 10 8 7 4 4 6 7 4 3 4 2 3
6 6 6 5 5 6 6 7 8 7 8 8 8 8 9 9 9 9 9 8 7 8 8 6 8 11 11 9 10 10 9 11 9 10 6 6 6 5 4 4 6 3 4
Wind_Direction
256 241 243 238 230 232 243 241 230 238 235 236 237 248 254 249 246 238 241 247 249 255 258 266 279 289 274 272 258 259 261 260 274 294 302 306 308 306 304 304 299 296 294
250 244 243 238 225 242 249 241 249 234 230 233 238 242 242 248 244 239 246 263 255 249 255 261 280 277 274 273 278 274 267 262 275 289 305 305 303 301 295 302 304 302 292
234 246 252 245 229 242 243 239 248 231 230 235 239 235 246 248 243 247 245 260 262 261 240 237 251 227 261 258 260 277 269 270 270 277 296 299 307 307 310 301 298 295 290
239 234 250 250 236 236 238 243 245 220 236 245 238 244 240 256 245 253 242 241 244 244 238 232 246 235 240 249 265 255 266 291 295 296 304 309 315 323 310 320 329 331 320
245 240 238 237 254 255 249 247 253 239 240 247 246 256 259 247 250 245 244 243 245 264 251 245 239 244 251 246 251 254 249 264 278 290 301 312 320 335 341 327 311 314 324
242 267 272 262 238 248 251 241 227 247 256 255 249 238 257 256 258 258 254 223 232 235 254 259 241 247 262 265 269 274 265 256 269 262 288 298 308 313 324 324 318 336 329
293 277 276 270 267 255 248 241 239 232 217 235 242 235 250 248 260 262 261 236 227 229 236 252 264 241 239 247 267 275 280 281 270 250 268 273 292 297 310 319 321 301 260
359 331 318 294 286 281 265 252 249 225 228 232 237 235 242 250 258 260 260 247 239 235 232 237 238 255 238 243 253 260 253 259 269 251 234 258 252 265 235 239 286 291 279
350 335 330 327 311 297 281 265 253 243 241 237 237 237 236 252 258 261 261 248 247 246 240 232 232 243 250 258 244 257 270 265 271 262 268 283 298 297 294 10 330 5 309
341 332 325 320 314 307 296 290 274 245 262 256 257 240 241 256 258 264 259 236 248 249 248 241 237 241 251 254 240 229 258 262 250 273 280 287 306 294 285 199 192 209 262
329 323 322 319 313 300 300 300 294 284 275 265 261 262 251 248 263 264 263 250 244 247 247 247 236 246 252 251 250 210 238 246 262 261 257 270 279 278 247 245 218 177 186
326 317 317 310 309 312 302 298 287 283 281 278 271 279 261 251 251 265 266 259 254 245 248 246 239 244 251 252 252 253 262 265 150 259 294 273 265 264 247 241 252 239 226
321 309 304 310 314 318 309 306 305 287 281 285 277 282 285 268 252 275 280 275 266 263 247 253 257 256 254 253 255 259 259 173 211 243 262 252 213 222 256 279 289 280 279
307 309 317 320 321 319 312 306 304 297 290 276 274 275 275 277 271 265 258 272 275 279 276 277 266 261 234 241 233 256 206 199 208 240 247 247 249 246 223 183 207 312 349
318 318 327 328 322 324 322 316 311 288 288 287 268 258 276 285 270 282 271 243 238 239 232 207 219 221 237 244 242 237 233 210 220 221 232 251 251 212 226 175 199 189 202
326 329 330 328 333 334 331 325 334 338 336 339 336 339 331 332 336 339 336 328 324 337 241 192 221 221 221 228 231 240 214 226 228 228 235 242 246 233 235 195 187 195 212
313 311 316 324 328 336 337 341 335 336 352 6 2 12 1 348 346 347 345 332 329 341 8 18 10 348 338 289 230 214 232 233 228 237 243 237 237 231 224 226 216 191 223
298 297 297 314 309 312 316 314 302 318 330 328 347 351 4 2 3 359 1 6 2 7 2 352 347 345 333 319 307 272 265 269 234 249 256 233 229 218 215 224 225 213 220
305 297 303 299 284 289 303 316 317 320 306 295 320 336 349 345 353 6 18 54 352 336 337 337 332 320 303 295 288 290 275 265 259 258 254 251 247 212 238 219 218 217 183
274 280 288 290 307 323 320 327 320 316 308 300 301 281 315 352 359 319 315 316 300 263 270 276 286 291 296 299 302 299 297 290 276 261 257 254 257 185 200 173 137 131 116
261 279 282 308 267 265 265 275 278 285 280 287 275 267 298 236 296 281 289 274 258 263 260 252 263 256 255 256 255 268 269 274 276 283 288 282 71 130 101 95 114 105 126
237 262 277 265 271 274 258 250 258 264 269 276 286 279 304 269 267 264 268 269 257 239 239 240 252 239 235 228 224 221 228 234 239 224 230 214 177 152 137 116 109 92 98
225 253 266 270 245 269 275 257 259 254 263 262 268 284 279 269 260 258 260 259 255 260 248 225 242 259 239 233 222 217 216 224 220 194 207 204 194 181 160 155 147 136 157
217 235 252 263 270 261 257 269 265 260 263 269 272 269 269 270 267 264 263 262 255 257 244 245 239 246 254 242 224 222 226 235 198 209 194 180 200 184 158 153 170 168 152
224 238 239 250 253 258 270 267 267 264 264 263 273 270 270 264 266 266 265 251 252 255 257 239 240 247 250 246 243 229 221 235 211 200 190 178 191 182 176 168 155 144 134
229 233 243 245 252 251 251 263 266 266 268 273 269 268 269 272 272 271 273 263 259 257 255 246 240 243 248 248 241 242 227 220 213 200 186 185 187 183 174 181 169 157 153